When you browse on this site, cookies collect data to enhance your experience and personalize the content and advertising you see.
Visit our Privacy Policy to learn more. By continuing to use the site, you agree to this use of cookies and data.
  • En España
  • Lista de países
  • Para 7 días
  • Temperatura del agua
  • El tiempo en el mapa
  • Informadores
  • user-avatar
    Iniciar sesión

    Tiempo cada hora Leatherhead

    Hoy, 13 Noviembre, Miércoles

    Tiempo Temperatura Precipitaciones Viento Presión Humedad
    00:00 +4°C° 0 mm 4 mps 743 mmHg 91%
    01:00 +3°C° 0 mm 3 mps 743 mmHg 91%
    02:00 +3°C° 0 mm 3 mps 743 mmHg 91%
    03:00 +3°C° 0 mm 3 mps 743 mmHg 92%
    04:00 +2°C° 0 mm 3 mps 743 mmHg 92%
    05:00 +2°C° 0 mm 3 mps 744 mmHg 92%
    06:00 +2°C° 0 mm 3 mps 744 mmHg 92%
    07:00 +2°C° 0 mm 3 mps 744 mmHg 91%
    08:00 +4°C° 0 mm 2 mps 744 mmHg 90%
    09:00 +4°C° 0 mm 2 mps 744 mmHg 88%
    10:00 +5°C° 0 mm 2 mps 743 mmHg 85%
    11:00 +6°C° 0 mm 2 mps 743 mmHg 81%
    12:00 +7°C° 0 mm 3 mps 743 mmHg 77%
    13:00 +7°C° 0 mm 3 mps 742 mmHg 77%
    14:00 +7°C° 0 mm 2 mps 741 mmHg 77%
    15:00 +7°C° 0 mm 2 mps 740 mmHg 77%
    16:00 +5°C° 0 mm 3 mps 739 mmHg 78%
    17:00 +5°C° 0 mm 3 mps 738 mmHg 79%
    18:00 +5°C° 0 mm 3 mps 737 mmHg 80%
    19:00 +5°C° 0.1 mm 4 mps 737 mmHg 80%
    20:00 +5°C° 0.1 mm 4 mps 736 mmHg 81%
    21:00 +6°C° 0.1 mm 4 mps 735 mmHg 81%
    22:00 +5°C° 0.4 mm 5 mps 735 mmHg 84%
    23:00 +5°C° 0.4 mm 5 mps 735 mmHg 86%

    Mañana, 14 Noviembre, Jueves

    Tiempo Temperatura Precipitaciones Viento Presión Humedad
    00:00 +4°C° 0.4 mm 6 mps 734 mmHg 89%
    01:00 +3°C° 1.1 mm 5 mps 734 mmHg 90%
    02:00 +4°C° 1.1 mm 4 mps 734 mmHg 91%
    03:00 +3°C° 1.1 mm 4 mps 734 mmHg 93%
    04:00 +3°C° 0.2 mm 3 mps 734 mmHg 92%
    05:00 +3°C° 0.2 mm 3 mps 735 mmHg 91%
    06:00 +2°C° 0.2 mm 3 mps 735 mmHg 90%
    07:00 +4°C° 0 mm 2 mps 736 mmHg 89%
    08:00 +4°C° 0 mm 2 mps 736 mmHg 88%
    09:00 +5°C° 0 mm 1 mps 737 mmHg 86%
    10:00 +5°C° 0 mm 2 mps 737 mmHg 82%
    11:00 +6°C° 0 mm 2 mps 738 mmHg 78%
    12:00 +7°C° 0 mm 3 mps 738 mmHg 73%
    13:00 +7°C° 0 mm 2 mps 739 mmHg 74%
    14:00 +7°C° 0 mm 2 mps 739 mmHg 75%
    15:00 +7°C° 0 mm 2 mps 739 mmHg 76%
    16:00 +6°C° 0.1 mm 2 mps 740 mmHg 80%
    17:00 +5°C° 0.1 mm 2 mps 741 mmHg 83%
    18:00 +4°C° 0.1 mm 2 mps 742 mmHg 87%
    19:00 +5°C° 0.1 mm 1 mps 742 mmHg 87%
    20:00 +5°C° 0.1 mm 1 mps 743 mmHg 88%
    21:00 +4°C° 0.1 mm 1 mps 744 mmHg 88%
    22:00 +4°C° 0 mm 1 mps 744 mmHg 89%
    23:00 +4°C° 0 mm 1 mps 744 mmHg 90%

    Pasado mañana, 15 Noviembre, Viernes

    Tiempo Temperatura Precipitaciones Viento Presión Humedad
    00:00 +4°C° 0 mm 1 mps 745 mmHg 91%
    01:00 +4°C° 0 mm 1 mps 745 mmHg 91%
    02:00 +4°C° 0 mm 1 mps 745 mmHg 91%
    03:00 +4°C° 0 mm 1 mps 745 mmHg 91%
    04:00 +4°C° 0 mm 1 mps 746 mmHg 90%
    05:00 +3°C° 0 mm 2 mps 746 mmHg 90%
    06:00 +2°C° 0 mm 2 mps 746 mmHg 90%
    07:00 +3°C° 0 mm 2 mps 747 mmHg 89%
    08:00 +2°C° 0 mm 3 mps 747 mmHg 88%
    09:00 +3°C° 0 mm 3 mps 748 mmHg 86%
    10:00 +4°C° 0 mm 4 mps 748 mmHg 84%
    11:00 +5°C° 0 mm 5 mps 747 mmHg 81%
    12:00 +6°C° 0 mm 5 mps 747 mmHg 78%
    13:00 +6°C° 0.3 mm 5 mps 747 mmHg 81%
    14:00 +6°C° 0.3 mm 5 mps 746 mmHg 84%
    15:00 +5°C° 0.3 mm 5 mps 746 mmHg 87%
    16:00 +5°C° 0.3 mm 5 mps 745 mmHg 87%
    17:00 +5°C° 0.3 mm 5 mps 745 mmHg 87%
    18:00 +5°C° 0.3 mm 5 mps 745 mmHg 87%
    19:00 +4°C° 0.8 mm 6 mps 745 mmHg 88%
    20:00 +4°C° 0.8 mm 7 mps 744 mmHg 89%
    21:00 +4°C° 0.8 mm 8 mps 744 mmHg 90%
    22:00 +4°C° 1.2 mm 7 mps 744 mmHg 90%
    23:00 +4°C° 1.2 mm 7 mps 743 mmHg 90%

    16 Noviembre, Sábado

    Tiempo Temperatura Precipitaciones Viento Presión Humedad
    00:00 +4°C° 1.2 mm 7 mps 743 mmHg 90%
    01:00 +3°C° 0.2 mm 6 mps 743 mmHg 89%
    02:00 +3°C° 0.2 mm 5 mps 742 mmHg 88%
    03:00 +4°C° 0.2 mm 4 mps 742 mmHg 87%
    04:00 +3°C° 0.1 mm 5 mps 742 mmHg 87%
    05:00 +3°C° 0.1 mm 5 mps 742 mmHg 88%
    06:00 +3°C° 0.1 mm 6 mps 742 mmHg 88%
    07:00 +3°C° 0 mm 5 mps 743 mmHg 87%
    08:00 +3°C° 0 mm 5 mps 743 mmHg 87%
    09:00 +3°C° 0 mm 5 mps 743 mmHg 87%
    10:00 +5°C° 0 mm 5 mps 743 mmHg 85%
    11:00 +6°C° 0 mm 5 mps 743 mmHg 83%
    12:00 +6°C° 0 mm 5 mps 744 mmHg 81%
    13:00 +6°C° 0.1 mm 4 mps 744 mmHg 81%
    14:00 +6°C° 0.1 mm 4 mps 744 mmHg 81%
    15:00 +6°C° 0.1 mm 4 mps 744 mmHg 82%
    16:00 +5°C° 0 mm 3 mps 744 mmHg 84%
    17:00 +5°C° 0 mm 3 mps 744 mmHg 87%
    18:00 +4°C° 0 mm 3 mps 744 mmHg 90%
    19:00 +4°C° 0 mm 3 mps 745 mmHg 91%
    20:00 +3°C° 0 mm 3 mps 745 mmHg 91%
    21:00 +3°C° 0 mm 3 mps 745 mmHg 92%
    22:00 +3°C° 0 mm 3 mps 745 mmHg 92%
    23:00 +3°C° 0 mm 3 mps 745 mmHg 93%

    17 Noviembre, Domingo

    Tiempo Temperatura Precipitaciones Viento Presión Humedad
    00:00 +2°C° 0 mm 3 mps 745 mmHg 93%
    01:00 +2°C° 0 mm 3 mps 745 mmHg 93%
    02:00 +3°C° 0 mm 2 mps 745 mmHg 93%
    03:00 +3°C° 0 mm 2 mps 745 mmHg 93%
    04:00 +3°C° 0 mm 2 mps 745 mmHg 94%
    05:00 +3°C° 0 mm 2 mps 746 mmHg 94%
    06:00 +3°C° 0 mm 2 mps 746 mmHg 94%
    07:00 +3°C° 0 mm 2 mps 746 mmHg 93%
    08:00 +4°C° 0 mm 2 mps 747 mmHg 92%
    09:00 +5°C° 0 mm 1 mps 747 mmHg 91%
    10:00 +5°C° 0 mm 2 mps 747 mmHg 87%
    11:00 +6°C° 0 mm 2 mps 747 mmHg 84%
    12:00 +7°C° 0 mm 2 mps 747 mmHg 80%
    13:00 +7°C° 0 mm 2 mps 748 mmHg 81%
    14:00 +7°C° 0 mm 2 mps 748 mmHg 82%
    15:00 +8°C° 0 mm 1 mps 748 mmHg 84%
    16:00 +6°C° 0 mm 2 mps 748 mmHg 87%
    17:00 +5°C° 0 mm 2 mps 748 mmHg 89%
    18:00 +4°C° 0 mm 2 mps 748 mmHg 92%
    19:00 +5°C° 0 mm 1 mps 748 mmHg 93%
    20:00 +4°C° 0 mm 1 mps 749 mmHg 93%
    21:00 +4°C° 0 mm 1 mps 749 mmHg 94%
    22:00 +4°C° 0 mm 1 mps 749 mmHg 94%
    23:00 +4°C° 0 mm 1 mps 749 mmHg 94%

    18 Noviembre, Lunes

    Tiempo Temperatura Precipitaciones Viento Presión Humedad
    00:00 +4°C° 0 mm 1 mps 749 mmHg 94%
    01:00 +4°C° 0 mm 1 mps 749 mmHg 94%
    02:00 +4°C° 0 mm 1 mps 749 mmHg 94%
    03:00 +4°C° 0 mm 1 mps 749 mmHg 94%
    04:00 +4°C° 0 mm 1 mps 749 mmHg 94%
    05:00 +3°C° 0 mm 1 mps 749 mmHg 94%
    06:00 +3°C° 0 mm 1 mps 749 mmHg 94%
    07:00 +4°C° 0 mm 1 mps 749 mmHg 93%
    08:00 +3°C° 0 mm 0 mps 749 mmHg 92%
    09:00 +4°C° 0 mm 0 mps 749 mmHg 91%
    10:00 +6°C° 0 mm 1 mps 749 mmHg 87%
    11:00 +7°C° 0 mm 1 mps 749 mmHg 83%
    12:00 +8°C° 0 mm 1 mps 749 mmHg 79%
    13:00 +8°C° 0 mm 1 mps 749 mmHg 80%
    14:00 +8°C° 0 mm 1 mps 748 mmHg 81%
    15:00 +7°C° 0 mm 1 mps 748 mmHg 82%
    16:00 +6°C° 0 mm 2 mps 748 mmHg 85%
    17:00 +5°C° 0 mm 2 mps 748 mmHg 87%
    18:00 +4°C° 0 mm 2 mps 748 mmHg 89%
    19:00 +5°C° 0.2 mm 2 mps 748 mmHg 89%
    20:00 +4°C° 0.2 mm 3 mps 747 mmHg 89%
    21:00 +5°C° 0.2 mm 4 mps 747 mmHg 89%
    22:00 +5°C° 0.2 mm 4 mps 747 mmHg 89%
    23:00 +5°C° 0.2 mm 4 mps 746 mmHg 90%
    Mostrar más